{"data":{"norad_id":65917,"epoch":"2026-05-24T11:59:47.742432Z","epoch_age_seconds":128562,"freshness":"FRESH","line1":"1 65917U 25225H   26144.49985813  .00011544  00000+0  40121-3 0  9993","line2":"2 65917  53.1575 173.6449 0000976  83.4712 276.6400 15.30205655 36014","mean_motion":15.30205655,"eccentricity":9.76e-5,"inclination_deg":53.1575,"raan_deg":173.6449,"arg_perigee_deg":83.4712,"mean_anomaly_deg":276.64,"bstar":0.00040121,"rev_number":3601,"period_min":94.104997932451,"perigee_km":474.52929914662,"apogee_km":475.86707017467,"semimajor_km":6853.3351846606,"source":"CELESTRAK","updated_at":"2026-05-25T13:38:20.987191Z"}}